Delavan, Wisconsin, United States (53115)
Lat: 42.63N, Lon: 88.64W
Wx Zone: WIZ070
Local Info
Past Weather Observations for Today

NOTE: This archive is for the closest National Weather Service station to Delavan. Information may differ from the station used for current weather conditions.

Click here for Long-term Archive

Time Weather Temperature Dewpoint Humidity Pressure Winds Precip Visibility
09:35
Clear
14°F / -10°C 1°F / -17°C 57% 30.3 in
(1026 mb)
SW 16.1 mph
(SW 26 kph)
- 10SM
09:15
Clear
12°F / -11°C 1°F / -17°C 62% 30.33 in
(1027 mb)
SSE 19.6 mph
(SSE 32 kph)
- 10SM
08:55
Clear
10°F / -12°C °F / -18°C 61% 30.33 in
(1027 mb)
SSE 13.8 mph
(SSE 22 kph)
- 10SM
08:35
Clear
9°F / -13°C °F / -18°C 66% 30.33 in
(1027 mb)
SSE 13.8 mph
(SSE 22 kph)
- 10SM
08:15
Clear
7°F / -14°C °F / -18°C 72% 30.33 in
(1027 mb)
SSE 15 mph
(SSE 24 kph)
- 10SM
07:55
Clear
5°F / -15°C °F / -18°C 78% 30.36 in
(1028 mb)
SSE 12.7 mph
(SSE 20 kph)
- 10SM
07:35
Clear
1°F / -17°C -2°F / -19°C 85% 30.36 in
(1028 mb)
SSE 12.7 mph
(SSE 20 kph)
- 10SM
07:15
Clear
-8°F / -22°C -11°F / -24°C 84% 30.36 in
(1028 mb)
SSE 4.6 mph
(SSE 7 kph)
- 10SM
06:55
Clear
-11°F / -24°C -15°F / -26°C 84% 30.36 in
(1028 mb)
SW 3.5 mph
(SW 6 kph)
- 10SM
06:35
Clear
-8°F / -22°C -13°F / -25°C 77% 30.36 in
(1028 mb)
S 3.5 mph
(S 6 kph)
- 10SM
06:15
Clear
-8°F / -22°C -11°F / -24°C 84% 30.39 in
(1029 mb)
Calm - 10SM
05:55
Clear
-11°F / -24°C -17°F / -27°C 76% 30.39 in
(1029 mb)
SW 4.6 mph
(SW 7 kph)
- 10SM
05:35
Clear
-11°F / -24°C -15°F / -26°C 84% 30.39 in
(1029 mb)
SW 5.8 mph
(SW 9 kph)
- 10SM
05:15
Clear
-13°F / -25°C -18°F / -28°C 76% 30.39 in
(1029 mb)
Calm - 10SM
04:55
Clear
-13°F / -25°C -17°F / -27°C 83% 30.39 in
(1029 mb)
SW 3.5 mph
(SW 6 kph)
- 10SM
04:35
Clear
-9°F / -23°C -11°F / -24°C 92% 30.39 in
(1029 mb)
SW 4.6 mph
(SW 7 kph)
- 10SM
04:15
Clear
-15°F / -26°C -20°F / -29°C 76% 30.42 in
(1030 mb)
Calm - 10SM
03:55
Clear
-15°F / -26°C -18°F / -28°C 83% 30.42 in
(1030 mb)
Calm - 10SM
03:35
Clear
-15°F / -26°C -20°F / -29°C 76% 30.42 in
(1030 mb)
S 3.5 mph
(S 6 kph)
- 10SM
03:15
Clear
-13°F / -25°C -17°F / -27°C 83% 30.42 in
(1030 mb)
Calm - 10SM
02:55
Clear
-15°F / -26°C -18°F / -28°C 83% 30.42 in
(1030 mb)
Calm - 10SM
02:35
Clear
-9°F / -23°C -15°F / -26°C 77% 30.45 in
(1031 mb)
SW 3.5 mph
(SW 6 kph)
- 10SM
02:15
Clear
-11°F / -24°C -15°F / -26°C 84% 30.45 in
(1031 mb)
Calm - 10SM
01:55
Clear
-11°F / -24°C -15°F / -26°C 84% 30.45 in
(1031 mb)
Calm - 10SM
01:35
Clear
-11°F / -24°C -15°F / -26°C 84% 30.45 in
(1031 mb)
Calm - 10SM
01:15
Clear
-9°F / -23°C -15°F / -26°C 77% 30.45 in
(1031 mb)
Calm - 10SM
00:55
Clear
-9°F / -23°C -13°F / -25°C 84% 30.48 in
(1032 mb)
SSW 3.5 mph
(SSW 6 kph)
- 10SM
00:35
Clear
-8°F / -22°C -13°F / -25°C 77% 30.48 in
(1032 mb)
SW 3.5 mph
(SW 6 kph)
- 10SM
00:15
Clear
-8°F / -22°C -13°F / -25°C 77% 30.48 in
(1032 mb)
Calm - 10SM
Time Weather Temperature Dewpoint Humidity Pressure Winds Precip Visibility


Weather for websites

WeatherForYou.com, LLC is not responsible for any damages or problems caused by this service. Current weather conditions are obtained from the closest station including government and personal stations which may have varying degrees of accuracy. Weather forecasts are derived from the NOAA NDFD. Like all things, this site belongs to Jesus Christ... He just trusts me to maintain it. If you have any questions or comments email webmaster@weatherforyou.com

Copyright © 2015, WeatherForYou.com LLC. All rights reserved.